Weather History for KOLF - March, 2012

Change the Weather History Date:

Saturday, March 3, 2012

  Actual Average Record
Temperature  
Mean Temperature 20 °F -  
Max Temperature 36 °F 37 °F 59 °F (2005)
Min Temperature 3 °F 12 °F -15 °F (2002)
Degree Days  
Heating Degree Days 45    
Cooling Degree Days 0    
Moisture  
Dew Point 16 °F    
Average Humidity 78    
Maximum Humidity 92    
Minimum Humidity 59    
Precipitation  
Precipitation T in 0.01 in 0.18 in (2013)
Month to date precipitation 0.03 0.03  
Year to date precipitation 0.23 0.55  
Sea Level Pressure  
Sea Level Pressure 29.90 in    
Wind  
Wind Speed 3 mph (WSW)    
Max Wind Speed 10 mph    
Max Gust Speed -    
Visibility 10 miles    
Events      
T = Trace of Precipitation, MM = Missing Value Source: NWS Daily Summary

Daily Weather History Graph

Daily Weather History Graph

Search for Another Location

Airport or City:

Trip Planner

Search our weather history database for the weather conditions in past years. The results will help you decide how hot, cold, wet, or windy it might be!

Date:

Astronomy

Mar. 03, 2012 Rise Set
Actual Time 6:38 AM MST 5:50 PM MST
Civil Twilight 6:07 AM MST 6:21 PM MST
Nautical Twilight 5:31 AM MST 6:57 PM MST
Astronomical Twilight 4:55 AM MST 7:34 PM MST
Moon 12:44 PM MST 3:36 AM MST
Length of Visible Light 12h 14m
Length of Day
11h 12m
Waxing Gibbous, 76% of the Moon is Illuminated
Mar 3
Waxing Gibbous
Mar 8
Full
Mar 14
Last Quarter
Mar 22
New
Mar 30
First Quarter

Hourly Weather History & Observations

Time (MST) Temp. Windchill Dew Point Humidity Pressure Visibility Wind Dir Wind Speed Gust Speed Precip Events Conditions
12:53 AM 9.0 °F - 7.0 °F 92% 30.04 in 9.0 mi Calm Calm - N/A   Overcast
1:53 AM 8.1 °F 1.4 °F 5.0 °F 87% 30.02 in 10.0 mi East 3.5 mph - N/A   Mostly Cloudy
2:53 AM 8.1 °F 1.4 °F 5.0 °F 87% 30.01 in 10.0 mi ENE 3.5 mph - N/A   Mostly Cloudy
3:53 AM 7.0 °F - 3.0 °F 84% 30.02 in 10.0 mi Calm Calm - N/A   Partly Cloudy
4:53 AM 3.9 °F - -0.0 °F 84% 30.02 in 10.0 mi Calm Calm - N/A   Clear
5:53 AM 6.1 °F - 3.0 °F 87% 30.03 in 10.0 mi Calm Calm - N/A   Mostly Cloudy
6:53 AM 9.0 °F - 5.0 °F 84% 30.02 in 10.0 mi Calm Calm - N/A   Overcast
7:53 AM 10.9 °F - 8.1 °F 88% 30.01 in 9.0 mi Calm Calm - N/A   Overcast
8:53 AM 15.1 °F 7.7 °F 12.0 °F 88% 30.01 in 10.0 mi SW 4.6 mph - N/A   Overcast
9:53 AM 19.0 °F 10.0 °F 14.0 °F 81% 29.99 in 10.0 mi SW 6.9 mph - N/A   Overcast
10:53 AM 24.1 °F 13.7 °F 17.1 °F 75% 29.96 in 10.0 mi WSW 10.4 mph - N/A   Overcast
11:53 AM 28.9 °F 19.8 °F 19.0 °F 67% 29.93 in 10.0 mi West 10.4 mph - N/A   Mostly Cloudy
12:53 PM 30.9 °F 22.8 °F 19.9 °F 64% 29.88 in 10.0 mi SW 9.2 mph - N/A   Mostly Cloudy
1:53 PM 34.0 °F 26.0 °F 21.9 °F 61% 29.84 in 10.0 mi SW 10.4 mph - N/A   Mostly Cloudy
2:53 PM 35.1 °F 32.2 °F 23.0 °F 61% 29.82 in 10.0 mi SW 3.5 mph - N/A   Overcast
3:53 PM 36.0 °F - 23.0 °F 59% 29.79 in 10.0 mi Calm Calm - N/A   Overcast
4:53 PM 35.1 °F - 25.0 °F 67% 29.78 in 10.0 mi Calm Calm - N/A   Overcast
5:53 PM 34.0 °F 28.8 °F 25.0 °F 70% 29.77 in 10.0 mi NE 5.8 mph - N/A   Overcast
6:53 PM 30.9 °F 27.5 °F 24.1 °F 76% 29.76 in 10.0 mi NE 3.5 mph - N/A   Overcast
7:53 PM 27.0 °F 20.5 °F 21.9 °F 81% 29.77 in 10.0 mi NNE 5.8 mph - N/A   Partly Cloudy
8:53 PM 28.0 °F 21.7 °F 24.1 °F 85% 29.77 in 10.0 mi West 5.8 mph - N/A   Overcast
9:53 PM 30.0 °F 22.4 °F 26.1 °F 85% 29.77 in 10.0 mi SW 8.1 mph - 0.00 in   Overcast
10:53 PM 33.1 °F 27.7 °F 28.0 °F 82% 29.78 in 10.0 mi West 5.8 mph - 0.00 in   Overcast
11:53 PM 33.1 °F 27.7 °F 28.9 °F 85% 29.81 in 10.0 mi WSW 5.8 mph - 0.00 in   Overcast